Cheyenne, WY

6:47 AM MDT on May 27, 2017 (GMT -0600)
Cheyenne

Weather History for KCYS - December, 2013

Change the Weather History Date:

Sunday, December 22, 2013

  Actual Average Record
Temperature  
Mean Temperature 24 °F 27 °F  
Max Temperature 35 °F 38 °F 61 °F (1896)
Min Temperature 13 °F 17 °F -28 °F (1989)
Degree Days  
Heating Degree Days 41 38  
Month to date heating degree days 906 824  
Since 1 July heating degree days 2610 2572  
Cooling Degree Days 0 0  
Month to date cooling degree days 0 0  
Year to date cooling degree days 520 348  
Moisture  
Dew Point 12 °F    
Average Humidity 65    
Maximum Humidity 88    
Minimum Humidity 41    
Precipitation  
Precipitation 0.04 in 0.01 in 0.36 in (1941)
Month to date precipitation 0.42 0.36  
Year to date precipitation 18.10 15.81  
Snow  
Snow 1.60 in 0.30 in 4.00 in (1941)
Month to date snowfall 9.6 6.2  
Since 1 July snowfall 25.2 20.5  
Snow Depth 0.00 in    
Sea Level Pressure  
Sea Level Pressure 30.08 in    
Wind  
Wind Speed 10 mph (NNW)    
Max Wind Speed 31 mph    
Max Gust Speed 40 mph    
Visibility 6 miles    
Events Fog , Snow    
T = Trace of Precipitation, MM = Missing Value Source: NWS Daily Summary

Daily Weather History Graph

Daily Weather History Graph

Search for Another Location

Airport or City:

Trip Planner

Search our weather history database for the weather conditions in past years. The results will help you decide how hot, cold, wet, or windy it might be!

Date:

Astronomy

Dec. 22, 2013 Rise Set
Actual Time 7:21 AM MST 4:34 PM MST
Civil Twilight 6:50 AM MST 5:05 PM MST
Nautical Twilight 6:15 AM MST 5:40 PM MST
Astronomical Twilight 5:42 AM MST 6:13 PM MST
Moon 9:52 PM MST (12/22) 10:16 AM MST (12/22)
Length of Visible Light 10h 14m
Length of Day
9h 12m
Waning Gibbous, 76% of the Moon is Illuminated
Dec 22
Waning Gibbous
Dec 25
Last Quarter
Jan 1
New
Jan 7
First Quarter
Jan 15
Full

Hourly Weather History & Observations

Time (MST) Temp. Windchill Dew Point Humidity Pressure Visibility Wind Dir Wind Speed Gust Speed Precip Events Conditions
12:53 AM 17.1 °F 8.7 °F 12.0 °F 81% 29.99 in 10.0 mi North 5.8 mph - N/A   Partly Cloudy
1:53 AM 15.1 °F - 10.9 °F 84% 30.01 in 10.0 mi Calm Calm - N/A   Mostly Cloudy
2:53 AM 19.0 °F 11.1 °F 12.0 °F 74% 30.01 in 10.0 mi North 5.8 mph - N/A   Overcast
3:53 AM 18.0 °F 6.1 °F 10.9 °F 74% 30.02 in 10.0 mi NW 10.4 mph - N/A   Partly Cloudy
4:53 AM 19.0 °F 7.5 °F 10.9 °F 71% 30.04 in 10.0 mi West 10.4 mph - N/A   Mostly Cloudy
5:53 AM 19.0 °F 9.0 °F 10.9 °F 71% 30.06 in 10.0 mi West 8.1 mph - N/A   Overcast
6:53 AM 17.1 °F - 10.9 °F 77% 30.09 in 10.0 mi Calm Calm - N/A   Mostly Cloudy
7:53 AM 18.0 °F - 12.0 °F 78% 30.11 in 10.0 mi Calm Calm - N/A   Overcast
8:53 AM 21.9 °F 15.7 °F 12.9 °F 68% 30.09 in 10.0 mi SW 4.6 mph - N/A   Clear
9:53 AM 28.0 °F 17.0 °F 14.0 °F 56% 30.07 in 10.0 mi WSW 13.8 mph - N/A   Scattered Clouds
10:53 AM 30.0 °F 23.2 °F 10.9 °F 45% 30.05 in 10.0 mi WNW 6.9 mph - N/A   Clear
11:53 AM 30.9 °F 18.7 °F 12.0 °F 46% 30.02 in 10.0 mi West 19.6 mph - N/A   Partly Cloudy
12:53 PM 30.9 °F 17.5 °F 12.0 °F 46% 30.01 in 10.0 mi West 24.2 mph 38.0 mph N/A   Partly Cloudy
1:53 PM 33.1 °F 20.6 °F 12.0 °F 42% 30.02 in 10.0 mi WNW 23.0 mph 35.7 mph N/A   Overcast
2:53 PM 34.0 °F 23.0 °F 12.0 °F 40% 29.99 in 10.0 mi WNW 18.4 mph 27.6 mph N/A   Overcast
3:53 PM 33.1 °F 23.9 °F 14.0 °F 46% 30.02 in 10.0 mi WNW 12.7 mph 24.2 mph N/A   Overcast
4:53 PM 30.0 °F 22.4 °F 15.1 °F 54% 30.06 in 10.0 mi WNW 8.1 mph - N/A   Overcast
5:53 PM 23.0 °F 10.1 °F 18.0 °F 81% 30.14 in 10.0 mi North 15.0 mph 24.2 mph N/A   Overcast
6:01 PM 21.2 °F 7.8 °F 17.6 °F 86% 29.98 in 10.0 mi NNE 15.0 mph - N/A   Overcast
6:18 PM 21.2 °F 6.8 °F 17.6 °F 86% 29.99 in 2.5 mi NNE 17.3 mph - 0.00 in Snow Light Snow
6:21 PM 21.2 °F 7.3 °F 17.6 °F 86% 30.00 in 1.8 mi North 16.1 mph - 0.00 in Snow Light Snow
6:41 PM 19.4 °F 5.5 °F 15.8 °F 86% 30.00 in 1.2 mi NNE 15.0 mph 25.3 mph 0.00 in Snow Light Snow
6:53 PM 18.0 °F 4.8 °F 15.1 °F 88% 30.21 in 0.8 mi NNE 12.7 mph 23.0 mph 0.00 in Snow Light Snow
7:01 PM 17.6 °F 2.7 °F 15.8 °F 93% 30.02 in 0.5 mi North 16.1 mph 21.9 mph 0.00 in Fog , Snow Snow
7:11 PM 17.6 °F 0.9 °F 14.0 °F 86% 30.02 in 0.5 mi NNE 20.7 mph 25.3 mph 0.00 in Fog , Snow Snow
7:21 PM 17.6 °F 2.2 °F 12.2 °F 79% 30.03 in 1.0 mi NNE 17.3 mph 26.5 mph 0.00 in Snow Light Snow
7:29 PM 15.8 °F 2.7 °F 12.2 °F 86% 30.03 in 1.8 mi NNE 11.5 mph 23.0 mph 0.01 in Snow Light Snow
7:53 PM 15.1 °F 0.5 °F 12.0 °F 88% 30.26 in 1.2 mi NNE 13.8 mph 25.3 mph 0.01 in Snow Light Snow
8:07 PM 15.8 °F 2.1 °F 10.4 °F 79% 30.06 in 2.0 mi NNE 12.7 mph 21.9 mph 0.00 in Snow Light Snow
8:17 PM 15.8 °F 2.7 °F 10.4 °F 79% 30.06 in 1.2 mi NNE 11.5 mph - 0.00 in Snow Light Snow
8:43 PM 15.8 °F 6.1 °F 10.4 °F 79% 30.08 in 3.0 mi NNE 6.9 mph - 0.00 in Snow Light Snow
8:53 PM 15.1 °F 6.4 °F 10.9 °F 84% 30.27 in 3.0 mi North 5.8 mph - 0.00 in Snow Light Snow
9:11 PM 15.8 °F 7.2 °F 10.4 °F 79% 30.08 in 2.5 mi North 5.8 mph - 0.01 in Snow Light Snow
9:22 PM 14.0 °F 2.0 °F 10.4 °F 86% 30.09 in 1.5 mi North 9.2 mph - 0.01 in Snow Light Snow
9:53 PM 14.0 °F 2.9 °F 10.0 °F 84% 30.28 in 1.8 mi NNE 8.1 mph - 0.02 in   Overcast
10:18 PM 14.0 °F 2.9 °F 10.4 °F 86% 30.10 in 2.0 mi NNE 8.1 mph - N/A   Overcast
10:42 PM 14.0 °F 3.9 °F 10.4 °F 86% 30.11 in 4.0 mi North 6.9 mph - N/A   Overcast
10:53 PM 14.0 °F 3.9 °F 10.0 °F 84% 30.28 in 2.0 mi North 6.9 mph - N/A   Overcast
11:12 PM 12.2 °F -0.2 °F 10.4 °F 92% 30.12 in 3.0 mi North 9.2 mph - 0.01 in   Overcast
11:22 PM 12.2 °F 2.9 °F 10.4 °F 92% 30.12 in 6.0 mi North 5.8 mph - 0.01 in   Overcast
11:53 PM 12.9 °F 5.2 °F 9.0 °F 84% 30.29 in 10.0 mi NNW 4.6 mph - 0.01 in   Overcast